N1JOT Weather Reports


Display with metric or nautical units.
time (UTC)temp
F
wind
direction
speed
MPH
gust
MPH
rain 1hr
in
rain 24hr
in
rain mn
in
humidity
%
barometer
mb
20260831031059 69 0 0.0 0.0 0.08 0.08 0.08 91 1018.0
20260831030602 69 0 0.0 0.0 0.08 0.08 0.08 91 1017.9
20260831030106 69 0 0.0 0.0 0.07 0.07 0.07 91 1017.9
20260831025557 70 0 0.0 0.0 0.07 0.07 0.07 91 1017.8
20260831025057 70 0 0.0 0.0 0.03 0.03 0.03 90 1018.0
20260831024627 70 0 0.0 1.0 0.01 0.01 0.01 90 1018.0
20260831024100 70 0 0.0 1.0 0.00 0.00 0.00 89 1017.9
20260831023557 70 0 0.0 1.0 0.00 0.00 0.00 89 1018.0
20260831023106 70 0 0.0 0.0 0.00 0.00 0.00 89 1018.0
20260831022558 70 0 0.0 0.0 0.00 0.00 0.00 89 1017.9
20260831022100 70 0 0.0 0.0 0.00 0.00 0.00 88 1018.0
20260831021619 70 0 0.0 0.0 0.00 0.00 0.00 88 1017.9
20260831021100 70 0 0.0 0.0 0.00 0.00 0.00 88 1018.0
20260831020601 70 0 0.0 0.0 0.00 0.00 0.00 87 1017.8
20260831020118 70 0 0.0 0.0 0.00 0.00 0.00 87 1017.8
20260831015602 70 0 0.0 0.0 0.00 0.00 0.00 86 1017.8
20260831015100 71 0 0.0 0.0 0.00 0.00 0.00 86 1017.8
20260831014611 71 0 0.0 0.0 0.00 0.00 0.00 85 1017.8
20260831014059 71 0 0.0 0.0 0.00 0.00 0.00 84 1017.8
20260831013600 71 0 0.0 0.0 0.00 0.00 0.00 84 1017.9
20260831013109 71 0 0.0 0.0 0.00 0.00 0.00 84 1017.9
20260831012601 71 0 0.0 0.0 0.00 0.00 0.00 84 1017.8
20260831012101 71 0 0.0 0.0 0.00 0.00 0.00 83 1017.7
20260831011613 71 0 0.0 0.0 0.00 0.00 0.00 83 1017.7
20260831011100 71 0 0.0 0.0 0.00 0.00 0.00 83 1017.7
20260831010600 71 0 0.0 0.0 0.00 0.00 0.00 83 1017.7
20260831010107 71 0 0.0 0.0 0.00 0.00 0.00 82 1017.7
20260831005601 71 0 0.0 0.0 0.00 0.00 0.00 82 1017.6
20260831005104 71 0 0.0 0.0 0.00 0.00 0.00 81 1017.7
20260831004603 71 0 0.0 0.0 0.00 0.00 0.00 81 1017.6
20260831004101 71 0 0.0 0.0 0.00 0.00 0.00 80 1017.6
20260831003603 71 0 0.0 0.0 0.00 0.00 0.00 79 1017.5
20260831003107 71 0 0.0 0.0 0.00 0.00 0.00 78 1017.6
20260831002600 71 0 0.0 1.0 0.00 0.00 0.00 78 1017.6
20260831002100 71 0 0.0 1.0 0.00 0.00 0.00 77 1017.5
20260831001604 71 0 0.0 0.0 0.00 0.00 0.00 77 1017.4
20260831001101 71 0 0.0 0.0 0.00 0.00 0.00 76 1017.4
20260831000600 71 0 0.0 0.0 0.00 0.00 0.00 77 1017.3
20260831000105 71 0 0.0 0.0 0.00 0.00 0.00 76 1017.3
20260830235601 71 0 0.0 0.0 0.00 0.00 0.00 75 1017.2
20260830235100 72 0 0.0 0.0 0.00 0.00 0.00 74 1017.2
20260830234612 72 0 0.0 0.0 0.00 0.00 0.00 73 1017.1
20260830234100 72 0 0.0 0.0 0.00 0.00 0.00 72 1017.2
20260830233600 72 0 0.0 0.0 0.00 0.00 0.00 71 1017.3
20260830233102 73 0 0.0 0.0 0.00 0.00 0.00 70 1017.1
20260830232600 72 0 0.0 0.0 0.00 0.00 0.00 70 1017.3
20260830232100 73 0 0.0 0.0 0.00 0.00 0.00 69 1017.4
20260830231606 73 0 0.0 2.0 0.00 0.00 0.00 69 1017.3
20260830231100 73 0 0.0 2.0 0.00 0.00 0.00 68 1017.3
20260830230559 73 0 0.0 2.0 0.00 0.00 0.00 67 1017.3
20260830230103 73 0 0.0 2.0 0.00 0.00 0.00 68 1017.2
20260830225600 73 328 0.0 2.0 0.00 0.00 0.00 67 1017.3
20260830225100 73 0 0.0 2.0 0.00 0.00 0.00 67 1017.4
20260830224616 74 0 0.0 2.0 0.00 0.00 0.00 66 1017.5
20260830224104 74 0 0.0 2.0 0.00 0.00 0.00 65 1017.5
20260830223600 74 194 0.0 4.0 0.00 0.00 0.00 64 1017.4
20260830223103 75 0 0.0 4.0 0.00 0.00 0.00 63 1017.6
20260830222600 75 168 1.0 4.0 0.00 0.00 0.00 63 1017.7
20260830222059 75 253 0.0 3.0 0.00 0.00 0.00 63 1017.6
20260830221601 75 0 0.0 3.0 0.00 0.00 0.00 63 1017.6
20260830221059 74 198 0.0 3.0 0.00 0.00 0.00 63 1017.6
20260830220559 75 192 0.0 4.0 0.00 0.00 0.00 64 1017.6
20260830220104 75 0 0.0 4.0 0.00 0.00 0.00 62 1017.6
20260830215601 75 184 0.0 2.0 0.00 0.00 0.00 61 1017.6
20260830215101 75 0 0.0 4.0 0.00 0.00 0.00 63 1017.5
20260830214607 75 157 0.0 4.0 0.00 0.00 0.00 62 1017.7
20260830214059 75 0 0.0 4.0 0.00 0.00 0.00 63 1017.7
20260830213600 75 0 0.0 3.0 0.00 0.00 0.00 63 1017.7
20260830213112 75 188 0.0 4.0 0.00 0.00 0.00 66 1017.6
20260830212559 76 0 0.0 4.0 0.00 0.00 0.00 65 1017.6
20260830212102 76 0 0.0 4.0 0.00 0.00 0.00 64 1017.6
20260830211607 76 150 0.0 2.0 0.00 0.00 0.00 64 1017.6
20260830211059 76 0 0.0 2.0 0.00 0.00 0.00 65 1017.6
20260830210600 76 0 0.0 0.0 0.00 0.00 0.00 66 1017.6
20260830210104 76 0 0.0 0.0 0.00 0.00 0.00 64 1017.6
20260830205600 76 0 0.0 0.0 0.00 0.00 0.00 63 1017.7
20260830205100 76 0 0.0 0.0 0.00 0.00 0.00 63 1017.6
20260830204606 77 0 0.0 0.0 0.00 0.00 0.00 62 1017.6
20260830204102 77 0 0.0 3.0 0.00 0.00 0.00 62 1017.7
20260830203600 77 0 0.0 3.0 0.00 0.00 0.00 62 1017.7
20260830203101 77 0 0.0 3.0 0.00 0.00 0.00 62 1017.7
20260830202600 77 0 0.0 3.0 0.00 0.00 0.00 61 1017.6
20260830202059 77 0 0.0 7.0 0.00 0.00 0.00 61 1017.6
20260830201614 77 0 0.0 7.0 0.00 0.00 0.00 63 1017.6
20260830201102 77 0 1.0 7.0 0.00 0.00 0.00 63 1017.7
20260830200556 77 0 0.0 2.0 0.00 0.00 0.00 61 1017.8
20260830200103 78 0 0.0 4.0 0.00 0.00 0.00 61 1017.9
20260830195559 78 0 0.0 4.0 0.00 0.00 0.00 60 1017.9
20260830195059 78 274 0.0 2.0 0.00 0.00 0.00 60 1018.0
20260830194602 78 244 0.0 3.0 0.00 0.00 0.00 58 1018.0
20260830194101 79 0 0.0 3.0 0.00 0.00 0.00 60 1018.0
20260830193601 79 0 0.0 2.0 0.00 0.00 0.00 56 1018.0
20260830193105 79 0 0.0 4.0 0.00 0.00 0.00 59 1018.1
20260830192600 79 0 0.0 4.0 0.00 0.00 0.00 57 1018.1
20260830192100 80 0 0.0 4.0 0.00 0.00 0.00 56 1018.1
20260830191602 80 192 0.0 8.0 0.00 0.00 0.00 54 1018.2
20260830191059 81 0 1.0 8.0 0.00 0.00 0.00 52 1018.2
20260830190559 81 202 0.0 6.0 0.00 0.00 0.00 56 1018.2
20260830190101 80 244 0.0 6.0 0.00 0.00 0.00 52 1018.3
20260830185559 80 232 1.0 7.0 0.00 0.00 0.00 50 1018.4
20260830185058 81 352 1.0 8.0 0.00 0.00 0.00 51 1018.4
20260830184608 81 274 2.0 8.0 0.00 0.00 0.00 50 1018.5
20260830184102 82 0 1.0 8.0 0.00 0.00 0.00 49 1018.4
20260830183559 84 337 1.0 5.0 0.00 0.00 0.00 49 1018.3
20260830183101 84 137 2.0 5.0 0.00 0.00 0.00 47 1018.3
20260830182600 83 244 1.0 3.0 0.00 0.00 0.00 50 1018.4
20260830182100 83 182 1.0 7.0 0.00 0.00 0.00 52 1018.5
20260830181611 81 0 1.0 7.0 0.00 0.00 0.00 49 1018.6
20260830181059 82 119 1.0 5.0 0.00 0.00 0.00 48 1018.6
20260830180559 82 187 1.0 4.0 0.00 0.00 0.00 49 1018.8
20260830180113 82 128 1.0 3.0 0.00 0.00 0.00 53 1018.9
20260830175600 82 195 1.0 6.0 0.00 0.00 0.00 50 1018.9
20260830175059 82 0 1.0 6.0 0.00 0.00 0.00 53 1018.8
20260830174613 82 275 2.0 8.0 0.00 0.00 0.00 51 1018.8
20260830174100 82 0 2.0 8.0 0.00 0.00 0.00 49 1018.8
20260830173600 82 226 0.0 7.0 0.00 0.00 0.00 51 1018.8
20260830173128 82 290 1.0 9.0 0.00 0.00 0.00 51 1019.0
20260830172559 82 254 3.0 9.0 0.00 0.00 0.00 46 1019.2
20260830172059 83 313 2.0 6.0 0.00 0.00 0.00 50 1019.2
20260830171630 83 145 0.0 9.0 0.00 0.00 0.00 50 1019.1
20260830171100 82 208 2.0 9.0 0.00 0.00 0.00 52 1019.1
20260830170600 82 275 2.0 6.0 0.00 0.00 0.00 53 1019.2
20260830170107 81 229 1.0 6.0 0.00 0.00 0.00 52 1019.2
20260830165601 80 0 2.0 6.0 0.00 0.00 0.00 56 1019.4
20260830165103 80 188 0.0 4.0 0.00 0.00 0.00 61 1019.5
20260830164603 80 355 0.0 4.0 0.00 0.00 0.00 54 1019.4
20260830164100 80 203 1.0 4.0 0.00 0.00 0.00 53 1019.4
20260830163600 80 248 0.0 4.0 0.00 0.00 0.00 54 1019.5
20260830163107 80 227 0.0 4.0 0.00 0.00 0.00 57 1019.6
20260830162600 79 0 1.0 5.0 0.00 0.00 0.00 55 1019.6
20260830162100 80 192 1.0 5.0 0.00 0.00 0.00 54 1019.7
20260830161605 80 0 1.0 5.0 0.00 0.00 0.00 56 1019.7
20260830161101 80 28 0.0 5.0 0.00 0.00 0.00 54 1019.8
20260830160600 79 5 1.0 6.0 0.00 0.00 0.00 57 1019.9
20260830160109 79 0 1.0 6.0 0.00 0.00 0.00 60 1019.9
20260830155559 79 142 1.0 5.0 0.00 0.00 0.00 56 1019.9
20260830155100 79 195 1.0 5.0 0.00 0.00 0.00 58 1019.9
20260830154601 78 317 1.0 6.0 0.00 0.00 0.00 60 1019.9
20260830154100 78 0 2.0 6.0 0.00 0.00 0.00 62 1020.0
20260830153600 78 143 1.0 3.0 0.00 0.00 0.00 60 1020.0
20260830153103 78 0 1.0 3.0 0.00 0.00 0.00 59 1020.2
20260830152559 78 314 1.0 5.0 0.00 0.00 0.00 61 1020.2
20260830152059 78 0 1.0 6.0 0.00 0.00 0.00 60 1020.4
20260830151625 78 200 2.0 6.0 0.00 0.00 0.00 62 1020.3
20260830151059 77 198 0.0 3.0 0.00 0.00 0.00 61 1020.4
20260830150603 77 0 0.0 3.0 0.00 0.00 0.00 64 1020.4
20260830150109 77 251 0.0 3.0 0.00 0.00 0.00 64 1020.5
20260830145602 76 220 0.0 5.0 0.00 0.00 0.00 63 1020.6
20260830145059 77 0 1.0 6.0 0.00 0.00 0.00 63 1020.7
20260830144607 76 0 1.0 6.0 0.00 0.00 0.00 64 1020.8
20260830144059 76 337 1.0 6.0 0.00 0.00 0.00 64 1020.8
20260830143559 76 257 1.0 4.0 0.00 0.00 0.00 65 1020.8
20260830143107 76 0 1.0 4.0 0.00 0.00 0.00 66 1020.8
20260830142559 75 219 1.0 4.0 0.00 0.00 0.00 65 1020.8
20260830142059 75 0 1.0 4.0 0.00 0.00 0.00 66 1020.8
20260830141608 74 0 1.0 8.0 0.00 0.00 0.00 65 1020.9
20260830141059 74 0 1.0 8.0 0.00 0.00 0.00 68 1020.9
20260830140600 74 0 0.0 4.0 0.00 0.00 0.00 66 1020.9
20260830140106 74 276 1.0 4.0 0.00 0.00 0.00 69 1020.9
20260830135604 73 342 0.0 7.0 0.00 0.00 0.00 68 1021.0
20260830135100 73 208 2.0 7.0 0.00 0.00 0.00 68 1021.0
20260830134603 72 184 1.0 6.0 0.00 0.00 0.00 71 1021.1
20260830134100 72 155 0.0 1.0 0.00 0.00 0.00 72 1021.1
20260830133559 72 0 0.0 2.0 0.00 0.00 0.00 71 1021.4
20260830133103 71 0 0.0 5.0 0.00 0.00 0.00 71 1021.4
20260830132601 71 0 0.0 5.0 0.00 0.00 0.00 73 1021.4
20260830132100 70 128 0.0 3.0 0.00 0.00 0.00 74 1021.4
20260830131609 70 269 0.0 3.0 0.00 0.00 0.00 73 1021.5
20260830131100 69 233 0.0 3.0 0.00 0.00 0.00 76 1021.4
20260830130600 69 0 1.0 3.0 0.00 0.00 0.00 75 1021.4
20260830130108 68 0 0.0 4.0 0.00 0.00 0.00 76 1021.5
20260830125600 68 0 0.0 4.0 0.00 0.00 0.00 77 1021.6
20260830125059 68 215 0.0 4.0 0.00 0.00 0.00 78 1021.7
20260830124603 67 0 0.0 4.0 0.00 0.00 0.00 79 1021.7
20260830124059 66 97 0.0 3.0 0.00 0.00 0.00 81 1021.7
20260830123601 66 0 0.0 3.0 0.00 0.00 0.00 81 1021.6
20260830123108 65 0 0.0 4.0 0.00 0.00 0.00 82 1021.8
20260830122600 65 279 0.0 4.0 0.00 0.00 0.00 83 1021.8
20260830122100 64 0 0.0 0.0 0.00 0.00 0.00 85 1021.8
20260830121604 63 0 0.0 0.0 0.00 0.00 0.00 86 1021.8
20260830121100 62 0 0.0 0.0 0.00 0.00 0.00 87 1021.8
20260830120600 62 0 0.0 0.0 0.00 0.00 0.00 87 1021.8
20260830120107 62 0 0.0 0.0 0.00 0.00 0.00 88 1021.7
20260830115559 61 0 0.0 0.0 0.00 0.00 0.00 89 1021.7
20260830115101 60 0 0.0 0.0 0.00 0.00 0.00 90 1021.8
20260830114604 59 0 0.0 0.0 0.00 0.00 0.00 90 1021.8
20260830114058 59 0 0.0 0.0 0.00 0.00 0.00 90 1021.9
20260830113600 59 0 0.0 0.0 0.00 0.00 0.00 90 1021.8
20260830113105 59 0 0.0 0.0 0.00 0.00 0.00 91 1021.8
20260830112559 58 0 0.0 0.0 0.00 0.00 0.00 91 1021.8
20260830112100 58 0 0.0 0.0 0.00 0.00 0.00 91 1021.8
20260830111603 58 0 0.0 0.0 0.00 0.00 0.00 92 1021.8
20260830111059 58 0 0.0 0.0 0.00 0.00 0.00 92 1021.8
20260830110600 58 0 0.0 0.0 0.00 0.00 0.00 92 1021.7
20260830110112 57 0 0.0 0.0 0.00 0.00 0.00 92 1021.7
20260830105559 57 0 0.0 0.0 0.00 0.00 0.00 92 1021.7
20260830105059 57 0 0.0 0.0 0.00 0.00 0.00 92 1021.8
20260830104602 56 0 0.0 0.0 0.00 0.00 0.00 92 1021.8
20260830104101 56 0 0.0 0.0 0.00 0.00 0.00 92 1021.8
20260830103559 56 0 0.0 0.0 0.00 0.00 0.00 93 1021.8
20260830103104 56 0 0.0 0.0 0.00 0.00 0.00 92 1021.9
20260830102558 56 0 0.0 0.0 0.00 0.00 0.00 92 1022.0
20260830102059 56 0 0.0 0.0 0.00 0.00 0.00 92 1022.0
20260830101602 56 0 0.0 0.0 0.00 0.00 0.00 92 1022.0
20260830101059 56 0 0.0 0.0 0.00 0.00 0.00 92 1022.0
20260830100559 56 0 0.0 0.0 0.00 0.00 0.00 92 1022.0
20260830095559 56 0 0.0 0.0 0.00 0.00 0.00 92 1021.8
20260830095100 56 0 0.0 0.0 0.00 0.00 0.00 92 1021.9
20260830094615 56 0 0.0 0.0 0.00 0.00 0.00 92 1021.9
20260830094059 56 0 0.0 0.0 0.00 0.00 0.00 92 1021.8
20260830093559 56 0 0.0 0.0 0.00 0.00 0.00 92 1021.8
20260830093101 56 0 0.0 0.0 0.00 0.00 0.00 92 1021.8
20260830092601 56 0 0.0 0.0 0.00 0.00 0.00 92 1021.9
20260830092100 56 0 0.0 0.0 0.00 0.00 0.00 91 1021.9
20260830091600 56 0 0.0 0.0 0.00 0.00 0.00 91 1022.0
20260830091100 56 0 0.0 0.0 0.00 0.00 0.00 91 1022.0
20260830090600 56 0 0.0 0.0 0.00 0.00 0.00 91 1022.0
20260830090100 56 0 0.0 0.0 0.00 0.00 0.00 91 1022.2
20260830085601 56 0 0.0 0.0 0.00 0.00 0.00 91 1022.1
20260830085059 57 0 0.0 0.0 0.00 0.00 0.00 91 1022.2
20260830084606 57 0 0.0 0.0 0.00 0.00 0.00 92 1022.2
20260830084100 57 0 0.0 0.0 0.00 0.00 0.00 92 1022.3
20260830083601 56 0 0.0 0.0 0.00 0.00 0.00 92 1022.5
20260830083107 56 0 0.0 0.0 0.00 0.00 0.00 92 1022.6
20260830082600 56 0 0.0 0.0 0.00 0.00 0.00 92 1022.7
20260830082059 56 0 0.0 0.0 0.00 0.00 0.00 92 1022.7
20260830081602 56 0 0.0 0.0 0.00 0.00 0.00 92 1022.6
20260830081100 56 0 0.0 0.0 0.00 0.00 0.00 92 1022.6
20260830080600 56 0 0.0 0.0 0.00 0.00 0.00 92 1022.6
20260830080111 56 0 0.0 0.0 0.00 0.00 0.00 92 1022.6
20260830075600 56 0 0.0 0.0 0.00 0.00 0.00 92 1022.5
20260830075100 56 0 0.0 0.0 0.00 0.00 0.00 92 1022.5
20260830074623 56 0 0.0 0.0 0.00 0.00 0.00 92 1022.5
20260830074059 56 0 0.0 0.0 0.00 0.00 0.00 92 1022.5
20260830073559 56 0 0.0 0.0 0.00 0.00 0.00 92 1022.5
20260830073115 56 0 0.0 0.0 0.00 0.00 0.00 92 1022.4
20260830072601 56 0 0.0 0.0 0.00 0.00 0.00 92 1022.3
20260830072059 56 0 0.0 0.0 0.00 0.00 0.00 92 1022.3
20260830071606 56 0 0.0 0.0 0.00 0.00 0.00 92 1022.2
20260830071102 57 0 0.0 0.0 0.00 0.00 0.00 92 1022.2
20260830070604 57 0 0.0 0.0 0.00 0.00 0.00 92 1022.1
20260830070109 57 0 0.0 0.0 0.00 0.00 0.00 92 1022.2
20260830065559 57 0 0.0 0.0 0.00 0.00 0.00 92 1022.2
20260830065100 57 0 0.0 0.0 0.00 0.00 0.00 92 1022.2
20260830064603 57 0 0.0 0.0 0.00 0.00 0.00 92 1022.2
20260830064100 57 0 0.0 0.0 0.00 0.00 0.00 92 1022.2
20260830063557 57 0 0.0 0.0 0.00 0.00 0.00 92 1022.3
20260830063101 57 0 0.0 0.0 0.00 0.00 0.00 92 1022.3
20260830062602 57 0 0.0 0.0 0.00 0.00 0.00 92 1022.3
20260830062059 57 0 0.0 0.0 0.00 0.00 0.00 92 1022.3
20260830061637 57 0 0.0 0.0 0.00 0.00 0.00 92 1022.3
20260830061059 57 0 0.0 0.0 0.00 0.00 0.00 92 1022.3
20260830060557 57 0 0.0 0.0 0.00 0.00 0.00 91 1022.4
20260830060109 57 0 0.0 0.0 0.00 0.00 0.00 92 1022.3
20260830055600 57 0 0.0 0.0 0.00 0.00 0.00 91 1022.4
20260830055100 57 0 0.0 0.0 0.00 0.00 0.00 91 1022.4
20260830054604 57 0 0.0 0.0 0.00 0.00 0.00 91 1022.4
20260830054059 57 0 0.0 0.0 0.00 0.00 0.00 91 1022.3
20260830053559 57 0 0.0 0.0 0.00 0.00 0.00 91 1022.3
20260830053101 58 0 0.0 0.0 0.00 0.00 0.00 91 1022.2
20260830052600 58 0 0.0 0.0 0.00 0.00 0.00 91 1022.2
20260830052057 58 0 0.0 0.0 0.00 0.00 0.00 91 1022.2
20260830051604 58 0 0.0 0.0 0.00 0.00 0.00 91 1022.4
20260830051059 58 0 0.0 0.0 0.00 0.00 0.00 91 1022.4
20260830050559 58 0 0.0 0.0 0.00 0.00 0.00 91 1022.4
20260830050105 58 0 0.0 0.0 0.00 0.00 0.00 91 1022.3
20260830045601 58 0 0.0 0.0 0.00 0.00 0.00 90 1022.3
20260830045103 58 0 0.0 0.0 0.00 0.00 0.00 91 1022.3
20260830044609 58 0 0.0 0.0 0.00 0.00 0.00 90 1022.3
20260830044102 58 0 0.0 0.0 0.00 0.00 0.00 90 1022.3
20260830043559 59 0 0.0 0.0 0.00 0.00 0.00 90 1022.2
20260830043146 58 0 0.0 0.0 0.00 0.00 0.00 90 1022.3
20260830042559 59 0 0.0 0.0 0.00 0.00 0.00 90 1022.3
20260830042100 59 0 0.0 0.0 0.00 0.00 0.00 90 1022.3
20260830041609 59 0 0.0 0.0 0.00 0.00 0.00 90 1022.4
20260830041059 59 0 0.0 0.0 0.00 0.00 0.00 90 1022.3
20260830040602 59 0 0.0 0.0 0.00 0.00 0.00 90 1022.3
20260830040105 59 0 0.0 0.0 0.00 0.00 0.00 90 1022.4
20260830035600 59 0 0.0 0.0 0.00 0.00 0.00 90 1022.3
20260830035100 59 0 0.0 0.0 0.00 0.00 0.00 89 1022.1
20260830034603 59 0 0.0 0.0 0.00 0.00 0.00 90 1022.2
20260830034100 59 0 0.0 0.0 0.00 0.00 0.00 89 1022.2
20260830033602 59 0 0.0 0.0 0.00 0.00 0.00 89 1022.3
20260830033104 60 0 0.0 0.0 0.00 0.00 0.00 89 1022.2
20260830032559 60 0 0.0 0.0 0.00 0.00 0.00 89 1022.2
20260830032059 60 0 0.0 0.0 0.00 0.00 0.00 89 1022.3
20260830031604 60 0 0.0 0.0 0.00 0.00 0.00 89 1022.3